sat.trackr.live / text

‹ back to catalog

STARLINK-37640

NORAD 69447 · 2026-127E

PAYLOAD ACTIVE UNKNOWN

§ Identity

Operator
Country
US
Launch date
2026-06-08
Launch site
AFETR
Launch vehicle
Mass (kg)
RCS (m²)

Purposes: comms

External: N2YO · Heavens-Above · Gunter

§ Orbital elements

Epoch: 2026-09-20T03:37:49.556064Z

Period
93.85 min
Inclination
53.1580°
Eccentricity
0.0001058
Mean motion
15.34401184 rev/d
Perigee alt
462.0 km
Apogee alt
463.4 km
Semi-major
6,840.8 km
B*
4.0673e-4
RAAN
167.6994°
Arg perigee
90.7931°
Mean anomaly
269.3192°
Rev number
1,613

§ Raw data

STARLINK-376401 69447U 26127E   26263.15126801  .00013391  00000+0  40673-3 0  99902 69447  53.1580 167.6994 0001058  90.7931 269.3192 15.34401184 16133

JSON: /api/v1/satellites/69447 · /tle

For live sub-satellite position, see the globe view (requires WebGL).

§ Visibility from observer

Set your observer location to see the next 7 days of passes ≥ 10°. The values pass through the URL so the page stays shareable.

No JS? Fill the form by hand. The geolocation button needs JavaScript.